TimeEST,TemperatureF,Dew PointF,Humidity,Sea Level PressureIn,VisibilityMPH,Wind Direction,Wind SpeedMPH,Gust SpeedMPH,PrecipitationIn,Events,Conditions,WindDirDegrees,DateUTC
12:15 AM,45.0,20.1,37,30.25,10.0,Calm,Calm,-,N/A,,Overcast,0,2013-02-22 05:15:00
12:35 AM,45.1,20.1,37,30.27,10.0,Calm,Calm,-,N/A,Rain,Light Rain,0,2013-02-22 05:35:00
12:55 AM,42.4,30.6,63,30.30,10.0,Calm,Calm,-,N/A,Rain,Rain,0,2013-02-22 05:55:00
1:15 AM,42.1,30.7,64,30.35,10.0,NW,4.6,-,N/A,Rain,Light Rain,310,2013-02-22 06:15:00
1:35 AM,41.0,30.7,67,30.34,10.0,Calm,Calm,-,N/A,,Overcast,0,2013-02-22 06:35:00
1:55 AM,40.3,29.8,66,30.31,10.0,NE,4.6,-,N/A,Rain,Rain,40,2013-02-22 06:55:00
2:15 AM,38.3,32.0,78,30.29,5.0,NE,4.6,-,0.03,Rain,Rain,40,2013-02-22 07:15:00
2:35 AM,37.8,32.5,81,30.30,5.0,NNE,4.6,-,0.06,Rain,Rain,20,2013-02-22 07:35:00
2:55 AM,37.2,34.0,88,30.30,5.0,North,4.6,-,0.09,Rain,Rain,10,2013-02-22 07:55:00
3:15 AM,37.2,34.2,89,30.33,5.0,Calm,Calm,-,0.04,Rain,Rain,0,2013-02-22 08:15:00
3:35 AM,36.5,34.0,91,30.34,3.0,Calm,Calm,-,0.08,Rain,Rain,0,2013-02-22 08:35:00
3:55 AM,36.5,34.2,91,30.32,5.0,ENE,3.5,-,0.10,Rain,Rain,70,2013-02-22 08:55:00
4:15 AM,36.0,34.0,93,30.28,4.0,NE,5.8,-,0.02,Rain,Heavy Rain,50,2013-02-22 09:15:00
4:35 AM,35.6,33.3,91,30.29,4.0,NNE,3.5,-,0.07,Rain,Rain,20,2013-02-22 09:35:00
4:55 AM,35.6,33.1,91,30.28,5.0,East,3.5,-,0.09,Rain,Rain,90,2013-02-22 09:55:00
5:15 AM,34.9,32.9,92,30.27,5.0,ENE,3.5,-,0.02,Rain,Light Rain,70,2013-02-22 10:15:00
5:35 AM,34.9,32.9,92,30.27,10.0,East,3.5,-,0.02,Rain,Rain,80,2013-02-22 10:35:00
5:55 AM,34.7,32.7,92,30.27,7.0,ESE,3.5,-,0.03,Rain,Light Rain,110,2013-02-22 10:55:00
6:15 AM,34.7,32.5,92,30.28,10.0,ESE,3.5,-,N/A,Rain,Light Rain,110,2013-02-22 11:15:00
6:35 AM,34.2,32.2,92,30.27,10.0,NNE,5.8,-,N/A,,Light Drizzle,20,2013-02-22 11:35:00
7:15 AM,34.0,32.0,92,30.30,10.0,Calm,Calm,-,N/A,,Light Drizzle,0,2013-02-22 12:15:00
7:35 AM,34.2,32.2,92,30.32,10.0,Calm,Calm,-,N/A,,Light Drizzle,0,2013-02-22 12:35:00
7:55 AM,34.5,32.5,92,30.34,10.0,North,3.5,-,N/A,,Overcast,350,2013-02-22 12:55:00
8:15 AM,34.7,32.2,91,30.32,10.0,Calm,Calm,-,N/A,,Overcast,0,2013-02-22 13:15:00
8:35 AM,34.9,32.9,92,30.33,10.0,North,3.5,-,N/A,,Mostly Cloudy,360,2013-02-22 13:35:00
8:55 AM,35.2,32.9,91,30.34,10.0,Calm,Calm,-,N/A,,Mostly Cloudy,0,2013-02-22 13:55:00
9:15 AM,35.4,32.2,88,30.33,10.0,NE,4.6,-,N/A,,Mostly Cloudy,50,2013-02-22 14:15:00
9:35 AM,35.6,32.7,89,30.31,10.0,ENE,5.8,-,N/A,Rain,Light Rain,70,2013-02-22 14:35:00
9:55 AM,35.2,32.4,89,30.29,10.0,ENE,4.6,-,N/A,,Mostly Cloudy,70,2013-02-22 14:55:00
10:15 AM,35.8,32.9,89,30.29,10.0,NE,5.8,-,N/A,,Overcast,40,2013-02-22 15:15:00
10:55 AM,36.1,32.2,86,30.30,10.0,ENE,3.5,-,N/A,,Overcast,60,2013-02-22 15:55:00
11:15 AM,36.7,32.4,84,30.30,10.0,ENE,3.5,-,N/A,,Overcast,60,2013-02-22 16:15:00
11:35 AM,37.4,32.7,83,30.30,10.0,Calm,Calm,-,N/A,,Overcast,0,2013-02-22 16:35:00
11:55 AM,37.6,32.4,81,30.30,10.0,Calm,Calm,-,N/A,,Overcast,0,2013-02-22 16:55:00
12:15 PM,37.4,32.0,81,30.29,10.0,Calm,Calm,-,N/A,,Overcast,0,2013-02-22 17:15:00
12:35 PM,37.6,32.4,81,30.29,10.0,Calm,Calm,-,N/A,,Overcast,0,2013-02-22 17:35:00
12:55 PM,37.4,32.9,84,30.27,10.0,NE,3.5,-,N/A,,Light Drizzle,40,2013-02-22 17:55:00
1:15 PM,37.9,33.1,83,30.25,10.0,NNE,5.8,-,N/A,,Overcast,30,2013-02-22 18:15:00
1:35 PM,38.3,32.7,80,30.24,10.0,ENE,5.8,-,N/A,,Overcast,60,2013-02-22 18:35:00
1:55 PM,38.3,32.7,80,30.24,10.0,NNE,5.8,-,N/A,,Overcast,30,2013-02-22 18:55:00
2:15 PM,37.8,34.0,86,30.22,3.0,Calm,Calm,-,0.01,Rain,Rain,0,2013-02-22 19:15:00
2:35 PM,38.3,35.6,90,30.21,10.0,NE,3.5,-,0.02,,Mostly Cloudy,50,2013-02-22 19:35:00
2:55 PM,37.9,35.4,91,30.21,5.0,NNE,6.9,-,0.02,,Drizzle,30,2013-02-22 19:55:00
3:15 PM,37.4,35.1,91,30.21,2.5,NNE,8.1,-,0.01,Rain,Rain,30,2013-02-22 20:15:00
3:35 PM,37.4,35.6,93,30.22,1.2,ENE,4.6,-,0.04,Rain,Rain,60,2013-02-22 20:35:00
3:55 PM,37.4,35.6,93,30.23,2.0,North,3.5,-,0.05,Rain,Light Rain,360,2013-02-22 20:55:00
4:15 PM,37.4,35.6,93,30.23,1.8,Calm,Calm,-,N/A,Rain,Light Rain,0,2013-02-22 21:15:00
4:35 PM,37.0,35.6,95,30.22,2.5,NNE,4.6,-,N/A,,Drizzle,20,2013-02-22 21:35:00
4:55 PM,36.7,35.6,96,30.22,2.5,NE,4.6,-,N/A,Rain,Rain,40,2013-02-22 21:55:00
5:15 PM,36.7,35.6,96,30.21,2.5,Calm,Calm,-,N/A,,Drizzle,0,2013-02-22 22:15:00
5:35 PM,36.9,35.6,95,30.21,2.5,NNE,3.5,-,0.01,,Drizzle,30,2013-02-22 22:35:00
6:15 PM,36.5,35.6,97,30.21,3.0,NNE,5.8,-,N/A,,Drizzle,30,2013-02-22 23:15:00
6:35 PM,36.5,35.2,95,30.21,3.0,NNE,4.6,-,N/A,,Drizzle,20,2013-02-22 23:35:00
6:55 PM,36.3,35.1,95,30.19,2.5,NE,4.6,-,N/A,Rain,Light Rain,50,2013-02-22 23:55:00
7:15 PM,36.3,35.1,95,30.19,2.5,NE,3.5,-,N/A,Rain,Light Rain,40,2013-02-23 00:15:00
7:35 PM,36.5,35.6,97,30.18,3.0,Calm,Calm,-,N/A,Rain,Light Rain,0,2013-02-23 00:35:00
7:55 PM,36.5,35.6,97,30.18,3.0,NNE,3.5,-,N/A,Rain,Light Rain,30,2013-02-23 00:55:00
8:15 PM,36.7,35.8,97,30.19,3.0,NNW,5.8,-,N/A,,Overcast,340,2013-02-23 01:15:00
8:35 PM,36.7,35.8,97,30.19,3.0,North,5.8,-,N/A,,Drizzle,10,2013-02-23 01:35:00
9:15 PM,36.9,36.0,97,30.18,2.0,NNE,5.8,-,0.01,,Heavy Drizzle,30,2013-02-23 02:15:00
9:35 PM,36.7,35.8,97,30.18,3.0,NE,4.6,-,0.02,,Heavy Drizzle,40,2013-02-23 02:35:00
10:15 PM,36.9,36.0,97,30.18,3.0,NNE,4.6,-,N/A,,Drizzle,20,2013-02-23 03:15:00
10:35 PM,36.9,36.0,97,30.17,3.0,NNE,4.6,-,0.01,,Drizzle,30,2013-02-23 03:35:00
10:55 PM,37.0,36.1,97,30.18,4.0,North,4.6,-,0.01,,Light Drizzle,360,2013-02-23 03:55:00
11:15 PM,37.4,36.5,97,30.17,3.0,North,6.9,-,N/A,,Drizzle,10,2013-02-23 04:15:00
11:35 PM,37.0,36.1,97,30.15,4.0,North,4.6,-,N/A,Rain,Rain,10,2013-02-23 04:35:00
11:55 PM,37.0,36.1,97,30.14,4.0,NE,3.5,-,N/A,,Light Drizzle,40,2013-02-23 04:55:00